[[{"header":{"parameterUnit":"m.s-1","parameterCategory":1,"la1":30.2991,"la2":30.254,"lo1":-89.0895,"lo2":-89.0444,"dy":0.0017,"dx":0.0017,"nx":28,"ny":28,"refTime":"2025-03-18T03:00:00:Z","depth":0,"parameterNumber":2,"parameterNumberName":"U-component_of_WINDS"},"data":[0,0,0,0,0,0,0,0,0,0,0,0,0,0,0,0,0,0,0,0,0,0,0,0,0,0,0,0,0,0,0,0,0,0,0,0,0,0,0,0,0,0,0,0,0,0,0,0,0,0,0,0,0,0,0,0,0,0,1.6209,1.621,0,1.6243,1.6243,1.6243,1.6218,1.6216,1.6215,1.6214,1.6247,1.6249,1.6251,0,0,0,0,0,0,0,0,0,0,0,0,0,1.612,1.6122,1.6209,1.621,1.621,1.6243,1.6243,1.6244,1.6218,1.6216,1.6215,1.6214,1.6246,1.6249,1.6251,0,0,0,0,0,0,0,0,0,0,0,0,0,1.6157,1.6122,1.6209,1.6201,1.6201,1.6243,1.6243,1.6244,1.6218,1.6216,1.6215,1.6213,1.6246,1.6248,1.6251,1.6302,0,0,1.626,1.6261,0,0,0,0,0,0,0,0,1.6155,1.616,1.6202,1.6202,1.6201,1.6224,1.6224,1.6263,1.6218,1.6211,1.6214,1.6212,1.6241,1.6244,1.6254,1.6304,1.6305,1.626,1.6262,1.6263,1.6264,0,0,0,0,0,0,0,1.6152,1.6158,1.6222,1.6203,1.6202,1.6195,1.6198,1.6231,1.6235,1.6212,1.621,1.6215,1.624,1.6251,1.6254,1.6305,1.626,1.6263,1.6264,1.6265,1.6396,1.6398,0,0,0,0,0,0,1.6151,1.6156,1.6221,1.6223,1.6174,1.6198,1.6202,1.6219,1.6235,1.6235,1.6216,1.6213,1.6247,1.6251,1.6255,1.6314,1.6263,1.6266,1.6267,1.6394,1.6397,1.6399,0,0,0,0,0,0,1.6149,1.6157,1.622,1.6189,1.6197,1.6201,1.622,1.622,1.6231,1.6238,1.6238,1.6226,1.6246,1.6251,1.629,1.6315,1.6267,1.627,1.6392,1.6395,1.6398,1.6433,0,0,0,0,0,0,1.6146,1.6156,1.6176,1.619,1.6199,1.6255,1.6222,1.6222,1.6236,1.6233,1.6247,1.6248,1.6245,1.6286,1.6293,1.6318,1.6272,1.639,1.6394,1.6397,1.643,1.6437,1.6443,0,0,0,0,0,1.6143,1.6185,1.6178,1.6186,1.6224,1.6257,1.6262,1.6257,1.6238,1.6258,1.6262,1.6248,1.6311,1.629,1.6298,1.6324,1.6389,1.6393,1.6396,1.6427,1.6436,1.6443,0,0,0,0,0,0,1.6174,1.6187,1.6179,1.6227,1.6241,1.6252,1.6277,1.6267,1.6286,1.6283,1.6276,1.6279,1.632,1.6326,1.6302,1.6373,1.6347,1.6352,1.6367,1.6375,1.6382,1.6379,1.6274,0,0,0,0,0,1.6187,1.6213,1.6223,1.6264,1.6271,1.6273,1.6287,1.6283,1.6297,1.6303,1.631,1.6323,1.6346,1.6361,1.6383,1.6431,1.6433,1.6453,1.6459,1.6464,1.6469,1.6492,1.6501,1.6412,1.6412,1.6411,0,0,1.6213,1.6223,1.624,1.627,1.6281,1.6307,1.6278,1.6308,1.6327,1.6307,1.6344,1.6349,1.6364,1.6407,1.6427,1.6414,1.6494,1.6469,1.6474,1.6475,1.6497,1.6506,1.6513,1.6414,1.6414,1.6413,0,0,1.6273,1.6284,1.6319,1.633,1.6346,1.6346,1.6355,1.6368,1.6371,1.6408,1.6393,1.6415,1.6455,1.6465,1.6476,1.6538,1.6525,1.6546,1.6579,1.6602,1.6609,1.6615,1.6635,1.6643,1.655,1.6551,1.6551,0,1.6303,1.6342,1.6338,1.6367,1.638,1.6364,1.6398,1.6409,1.6431,1.644,1.6425,1.6474,1.6483,1.6527,1.6542,1.6552,1.656,1.6543,1.6608,1.6615,1.662,1.6639,1.6647,1.6553,1.6552,1.6552,1.6552,0,1.6377,1.6405,1.643,1.6452,1.6468,1.65,1.6499,1.6515,1.6509,1.6511,1.6547,1.6558,1.658,1.659,1.6585,1.6633,1.6625,1.661,1.6583,1.6631,1.6649,1.6656,1.6556,1.6555,1.6554,1.6554,0,0,1.6458,1.6476,1.6485,1.6494,1.651,1.653,1.6561,1.6583,1.6596,1.6612,1.6636,1.667,1.6655,1.6667,1.6663,1.6683,1.6729,1.6665,1.6665,1.6675,1.6781,1.6791,1.68,1.6721,1.6723,1.6724,1.6779,0,1.6517,1.657,1.6566,1.6616,1.664,1.6624,1.665,1.6662,1.6665,1.6685,1.6687,1.671,1.669,1.6697,1.6717,1.672,1.675,1.6716,1.6742,1.6743,1.6737,1.681,1.6821,1.6873,1.6786,1.6788,1.6789,0,1.6593,1.6611,1.6663,1.6674,1.6684,1.6708,1.6726,1.6746,1.6759,1.6759,1.6772,1.6763,1.6792,1.6766,1.6805,1.6781,1.6792,1.6795,1.6797,1.6798,1.6768,1.6811,1.6889,1.6896,1.68,1.6799,1.6798,0,1.6644,1.6682,1.6717,1.6725,1.6739,1.6756,1.6762,1.6773,1.6786,1.6803,1.681,1.683,1.684,1.6855,1.6852,1.6833,1.6891,1.6864,1.689,1.689,1.6902,1.6901,1.6981,1.6912,1.6911,1.6911,1.6911,0,1.671,1.6742,1.674,1.6761,1.6796,1.6791,1.6825,1.6829,1.6839,1.686,1.6848,1.6868,1.6863,1.6882,1.688,1.6911,1.6917,1.6916,1.6915,1.6916,1.6916,1.6922,1.6918,1.6913,1.6913,1.6913,1.6912,0,1.6772,1.6772,1.6809,1.6819,1.6823,1.6848,1.6855,1.6875,1.6876,1.6903,1.6909,1.691,1.6933,1.6931,1.6956,1.6954,1.6992,1.6987,1.6988,1.6986,1.7011,1.7008,1.7097,1.7107,1.7033,1.7033,1.7034,0,1.6813,1.6837,1.6849,1.6863,1.687,1.6892,1.6905,1.6901,1.6914,1.693,1.6947,1.6968,1.6985,1.7021,1.7023,1.7042,1.7036,1.7066,1.7039,1.7039,1.7034,1.7032,1.7034,1.7071,1.7072,1.7072,1.7073,0,1.6885,1.6884,1.6903,1.6922,1.6938,1.6952,1.6966,1.6977,1.6974,1.699,1.7012,1.7025,1.705,1.707,1.7088,1.7093,1.7082,1.7082,1.7088,1.7089,1.7087,1.7087,1.7,1.7079,1.7079,1.7078,1.7078,1.7077,1.6937,1.6956,1.6968,1.6989,1.6999,1.7011,1.7029,1.7033,1.7051,1.7071,1.7068,1.7092,1.7103,1.7125,1.7132,1.7151,1.714,1.715,1.7152,1.7154,1.7156,1.7086,1.7154,1.7154,1.7154,1.7154,1.7153,0,1.7006,1.7012,1.7032,1.7051,1.7067,1.7056,1.707,1.7084,1.7106,1.7117,1.7133,1.7158,1.7178,1.7182,1.72,1.7214,1.7209,1.7219,1.7217,1.7218,1.7166,1.7157,1.7222,1.7222,1.7222,1.7222,1.7222,1.7222,1.7044,1.7076,1.7076,1.7113,1.7118,1.7143,1.7151,1.7162,1.7171,1.7199,1.7215,1.7218,1.7225,1.7244,1.7261,1.7261,1.7268,1.7279,1.7277,1.7228,1.7222,1.7215,1.7207,1.7281,1.7281,1.7327,1.7328,1.7328]},{"header":{"parameterUnit":"m.s-1","parameterCategory":1,"la1":30.2991,"la2":30.254,"lo1":-89.0895,"lo2":-89.0444,"dy":0.0017,"dx":0.0017,"nx":28,"ny":28,"refTime":"2025-03-18T03:00:00:Z","depth":0,"parameterNumber":3,"parameterNumberName":"V-component_of_WINDS"},"data":[0,0,0,0,0,0,0,0,0,0,0,0,0,0,0,0,0,0,0,0,0,0,0,0,0,0,0,0,0,0,0,0,0,0,0,0,0,0,0,0,0,0,0,0,0,0,0,0,0,0,0,0,0,0,0,0,0,0,6.8561,6.8562,0,6.8681,6.8682,6.8683,6.8636,6.8633,6.863,6.8627,6.8744,6.8749,6.8755,0,0,0,0,0,0,0,0,0,0,0,0,0,6.8283,6.8288,6.8561,6.8562,6.8564,6.8681,6.8682,6.8684,6.8636,6.8633,6.8629,6.8626,6.8742,6.8749,6.8756,0,0,0,0,0,0,0,0,0,0,0,0,0,6.8403,6.829,6.856,6.8554,6.8555,6.868,6.8682,6.8684,6.8637,6.8633,6.8629,6.8625,6.874,6.8748,6.8756,6.8893,0,0,6.8783,6.8786,0,0,0,0,0,0,0,0,6.8396,6.8413,6.8554,6.8555,6.8556,6.8639,6.8627,6.8754,6.8638,6.8606,6.8627,6.8623,6.8712,6.8722,6.8754,6.8899,6.8903,6.8783,6.8789,6.8792,6.8795,0,0,0,0,0,0,0,6.8388,6.8408,6.8608,6.8556,6.8557,6.8543,6.8555,6.8651,6.868,6.8608,6.8605,6.862,6.8712,6.8746,6.8756,6.8905,6.8783,6.8791,6.8796,6.8799,6.9166,6.917,0,0,0,0,0,0,6.838,6.8401,6.8604,6.8611,6.8464,6.8551,6.8565,6.8616,6.8679,6.8685,6.8624,6.8617,6.8733,6.8746,6.876,6.8924,6.8792,6.88,6.8805,6.9161,6.9167,6.9172,0,0,0,0,0,0,6.8375,6.8399,6.8599,6.8506,6.853,6.8561,6.8618,6.8621,6.8655,6.8691,6.8696,6.8654,6.8731,6.8748,6.8861,6.8927,6.8804,6.8812,6.9156,6.9163,6.917,6.9252,0,0,0,0,0,0,6.8367,6.8397,6.8451,6.8507,6.8535,6.87,6.8623,6.8626,6.8671,6.8664,6.8721,6.8726,6.8729,6.8848,6.8869,6.8936,6.8818,6.915,6.9159,6.9167,6.9243,6.9261,6.9276,0,0,0,0,0,6.8357,6.8468,6.8454,6.8479,6.8604,6.8704,6.872,6.8723,6.8677,6.873,6.8753,6.8724,6.8916,6.886,6.8883,6.8954,6.9146,6.9157,6.9167,6.9236,6.9257,6.9275,0,0,0,0,0,0,6.8417,6.8476,6.8461,6.8594,6.8645,6.8696,6.8763,6.8745,6.8808,6.8799,6.8798,6.8811,6.8927,6.8951,6.8888,6.9089,6.9024,6.9039,6.9069,6.9089,6.9105,6.9096,6.8826,0,0,0,0,0,6.8446,6.8525,6.8571,6.8684,6.871,6.8733,6.8776,6.8774,6.8826,6.8846,6.8877,6.8927,6.8998,6.9045,6.9112,6.9247,6.9257,6.9307,6.9323,6.9336,6.9349,6.942,6.9442,6.9206,6.9206,6.9206,0,0,6.8506,6.8548,6.8597,6.8697,6.8736,6.8815,6.8751,6.8837,6.8895,6.8859,6.8967,6.8992,6.9046,6.917,6.9226,6.9194,6.9417,6.9349,6.9359,6.9365,6.9433,6.9456,6.9475,6.9213,6.9212,6.9211,0,0,6.8657,6.8697,6.8795,6.8836,6.8897,6.8911,6.8934,6.8988,6.9004,6.9113,6.9087,6.9154,6.9278,6.9318,6.9354,6.9519,6.9494,6.9541,6.9625,6.9694,6.9713,6.9729,6.9787,6.9808,6.9554,6.9554,6.9554,0,6.8723,6.8844,6.8847,6.8937,6.898,6.8952,6.905,6.9089,6.9168,6.9197,6.9161,6.9315,6.935,6.9482,6.9522,6.9553,6.9578,6.9534,6.971,6.9727,6.9742,6.9797,6.9819,6.9559,6.9559,6.9558,6.9557,0,6.8922,6.9006,6.9078,6.9157,6.9208,6.9301,6.9316,6.9368,6.9361,6.9378,6.9489,6.953,6.9605,6.9636,6.9629,6.9767,6.9745,6.971,6.9644,6.977,6.9821,6.9843,6.9567,6.9565,6.9563,6.9562,0,0,6.9113,6.9194,6.922,6.9255,6.9319,6.9383,6.9474,6.955,6.9593,6.9648,6.9722,6.9828,6.9795,6.9837,6.9834,6.9895,7.0022,6.9852,6.9854,6.9882,7.0174,7.02,7.0224,7.0006,7.001,7.0013,7.0169,0,6.9268,6.943,6.9435,6.9582,6.9659,6.9633,6.9712,6.9759,6.9777,6.9843,6.9861,6.9936,6.9888,6.9913,6.9972,6.9994,7.008,6.9983,7.0073,7.0077,7.006,7.0251,7.0279,7.0424,7.0189,7.0193,7.0195,0,6.947,6.9534,6.9689,6.9742,6.9774,6.9846,6.9915,6.9979,7.003,7.0039,7.0085,7.0074,7.0164,7.0096,7.0219,7.0153,7.019,7.0206,7.0211,7.0219,7.0143,7.0263,7.0471,7.0492,7.0227,7.0225,7.0222,0,6.9593,6.9717,6.9826,6.9857,6.9922,6.9972,7.0001,7.0049,7.0094,7.0153,7.0182,7.025,7.0288,7.034,7.0346,7.0296,7.0469,7.0402,7.0477,7.0477,7.0514,7.0512,7.073,7.054,7.054,7.0539,7.0539,0,6.9765,6.9861,6.9882,6.9949,7.0055,7.0059,7.0163,7.0187,7.023,7.0299,7.028,7.0345,7.035,7.0416,7.0421,7.0521,7.0538,7.0546,7.0546,7.0548,7.0547,7.0572,7.0561,7.0545,7.0544,7.0542,7.0541,0,6.992,6.9939,7.0056,7.0108,7.0123,7.0198,7.0242,7.0304,7.0321,7.0409,7.0429,7.0454,7.0531,7.0542,7.0632,7.0635,7.0755,7.0745,7.0739,7.0737,7.0811,7.0804,7.1052,7.1084,7.0874,7.0876,7.0878,0,7.0028,7.0102,7.0162,7.0209,7.0241,7.0315,7.0361,7.0367,7.0415,7.0479,7.0534,7.0609,7.067,7.0793,7.0817,7.0885,7.0876,7.0958,7.0886,7.0885,7.0876,7.0871,7.0878,7.0972,7.0974,7.0976,7.0978,0,7.0218,7.0224,7.0292,7.0364,7.042,7.0476,7.0529,7.0567,7.0579,7.0634,7.0713,7.0761,7.0853,7.0927,7.0994,7.1021,7.1001,7.1,7.1021,7.1023,7.1016,7.102,7.0776,7.0994,7.0993,7.0991,7.0991,7.099,7.0352,7.0416,7.0469,7.0545,7.0586,7.0636,7.0697,7.0722,7.0789,7.0866,7.0864,7.0951,7.0999,7.1088,7.1119,7.1185,7.1158,7.1189,7.1196,7.1204,7.121,7.1006,7.1198,7.1197,7.1197,7.1196,7.1196,0,7.054,7.0573,7.0644,7.0719,7.0779,7.0757,7.0814,7.0864,7.0942,7.099,7.105,7.114,7.1212,7.1242,7.1312,7.1359,7.1352,7.1377,7.1373,7.138,7.1231,7.1206,7.1382,7.1382,7.1382,7.1382,7.1382,7.1382,7.0645,7.0752,7.0763,7.0889,7.092,7.1007,7.1041,7.1086,7.1124,7.1227,7.1287,7.1307,7.1347,7.142,7.1484,7.1491,7.1517,7.1546,7.1549,7.1409,7.139,7.1372,7.1349,7.1552,7.1552,7.1692,7.1693,7.1694]}]]